[[{"header":{"parameterUnit":"m.s-1","parameterCategory":1,"la1":30.2991,"la2":30.254,"lo1":-89.0895,"lo2":-89.0444,"dy":0.0017,"dx":0.0017,"nx":28,"ny":28,"refTime":"2024-08-05T21:00:00:Z","depth":0,"parameterNumber":2,"parameterNumberName":"U-component_of_WINDS"},"data":[0,0,0,0,0,0,0,0,0,0,0,0,0,0,0,0,0,0,0,0,0,0,0,0,0,0,0,0,0,0,0,0,0,0,0,0,0,0,0,0,0,0,0,0,0,0,0,0,0,0,0,0,0,0,0,0,0,0,1.5305,1.5305,0,1.534,1.534,1.5341,1.532,1.5319,1.5318,1.5317,1.5354,1.5356,1.5357,0,0,0,0,0,0,0,0,0,0,0,0,0,1.5221,1.5222,1.5305,1.5305,1.5305,1.534,1.534,1.5341,1.5321,1.5319,1.5318,1.5317,1.5353,1.5355,1.5358,0,0,0,0,0,0,0,0,0,0,0,0,0,1.5257,1.5223,1.5304,1.53,1.5299,1.534,1.534,1.5341,1.5321,1.5319,1.5318,1.5316,1.5352,1.5355,1.5358,1.5405,0,0,1.5367,1.5368,0,0,0,0,0,0,0,0,1.5255,1.526,1.53,1.53,1.53,1.5324,1.5324,1.5362,1.5321,1.5313,1.5317,1.5316,1.5345,1.5348,1.5358,1.5407,1.5408,1.5367,1.5369,1.537,1.5371,0,0,0,0,0,0,0,1.5252,1.5258,1.5319,1.53,1.53,1.5296,1.5299,1.5331,1.5337,1.5313,1.5312,1.5316,1.5345,1.5356,1.5359,1.5409,1.5367,1.5369,1.5371,1.5372,1.55,1.5501,0,0,0,0,0,0,1.525,1.5256,1.5317,1.532,1.5273,1.5299,1.5302,1.5318,1.5336,1.5338,1.5318,1.5315,1.5352,1.5356,1.536,1.5418,1.537,1.5372,1.5374,1.5498,1.55,1.5502,0,0,0,0,0,0,1.5248,1.5256,1.5316,1.5288,1.5295,1.5302,1.5319,1.5319,1.533,1.534,1.5341,1.5328,1.5351,1.5356,1.5395,1.5419,1.5374,1.5376,1.5496,1.5499,1.5501,1.5532,0,0,0,0,0,0,1.5246,1.5255,1.5273,1.5288,1.5296,1.5349,1.5321,1.5321,1.5335,1.5332,1.5349,1.5351,1.535,1.539,1.5397,1.5422,1.5378,1.5494,1.5497,1.55,1.5529,1.5535,1.5541,0,0,0,0,0,1.5243,1.528,1.5274,1.5281,1.5319,1.5351,1.5355,1.5354,1.5337,1.5355,1.5362,1.535,1.5415,1.5394,1.5402,1.5428,1.5492,1.5496,1.55,1.5526,1.5534,1.5541,0,0,0,0,0,0,1.5267,1.5282,1.5275,1.5318,1.5333,1.5347,1.537,1.5362,1.5382,1.5379,1.5376,1.538,1.542,1.5428,1.5405,1.5475,1.5451,1.5457,1.5469,1.5476,1.5482,1.5479,1.5381,0,0,0,0,0,1.5277,1.5301,1.5313,1.535,1.5358,1.5363,1.5377,1.5374,1.539,1.5396,1.5405,1.5421,1.5445,1.5461,1.5484,1.553,1.5534,1.5552,1.5558,1.5563,1.5567,1.5594,1.5602,1.5514,1.5514,1.5514,0,0,1.5298,1.5309,1.5325,1.5355,1.5367,1.5393,1.5368,1.5396,1.5416,1.5401,1.5437,1.5445,1.5463,1.5505,1.5525,1.5513,1.5593,1.5567,1.5571,1.5573,1.5598,1.5607,1.5614,1.5517,1.5516,1.5516,0,0,1.535,1.5361,1.5393,1.5406,1.5424,1.5427,1.5435,1.545,1.5455,1.5492,1.5481,1.5505,1.5546,1.5559,1.5572,1.5631,1.5621,1.5638,1.5669,1.5695,1.5702,1.5708,1.573,1.5738,1.5643,1.5643,1.5643,0,1.5374,1.5412,1.5411,1.544,1.5454,1.5442,1.5475,1.5487,1.5512,1.5522,1.5509,1.5561,1.5572,1.5619,1.5633,1.5644,1.5653,1.5636,1.5701,1.5707,1.5713,1.5734,1.5742,1.5645,1.5645,1.5645,1.5645,0,1.5442,1.5469,1.5493,1.5517,1.5534,1.5565,1.5568,1.5586,1.5583,1.5587,1.5626,1.5639,1.5665,1.5676,1.5672,1.5722,1.5714,1.5701,1.5677,1.5723,1.5743,1.5751,1.5648,1.5647,1.5647,1.5646,0,0,1.5508,1.5532,1.5541,1.5553,1.5573,1.5594,1.5625,1.565,1.5666,1.5684,1.571,1.5746,1.5735,1.5749,1.5747,1.577,1.5817,1.5754,1.5754,1.5766,1.5874,1.5884,1.5893,1.5811,1.5813,1.5814,1.5873,0,1.5562,1.5616,1.5616,1.5666,1.5692,1.5682,1.5709,1.5725,1.5731,1.5753,1.576,1.5786,1.5768,1.5777,1.5799,1.5807,1.5839,1.5802,1.5836,1.5838,1.5832,1.5903,1.5913,1.5967,1.588,1.5881,1.5882,0,1.5631,1.5652,1.5705,1.5722,1.5733,1.5757,1.5781,1.5803,1.5821,1.5824,1.5841,1.5836,1.5869,1.5844,1.589,1.5865,1.5879,1.5885,1.5888,1.589,1.5862,1.5908,1.5985,1.5993,1.5894,1.5893,1.5892,0,1.5675,1.5716,1.5753,1.5763,1.5785,1.5802,1.5812,1.5829,1.5844,1.5866,1.5876,1.5901,1.5915,1.5934,1.5937,1.5919,1.5983,1.5958,1.5987,1.5987,1.6,1.5999,1.6081,1.601,1.6009,1.6009,1.6009,0,1.5734,1.5767,1.5773,1.5796,1.5833,1.5833,1.587,1.5879,1.5894,1.5919,1.5912,1.5935,1.5938,1.5962,1.5965,1.6003,1.6009,1.6012,1.6013,1.6013,1.6013,1.6022,1.6018,1.6012,1.6011,1.6011,1.601,0,1.5789,1.5794,1.5834,1.5852,1.5857,1.5884,1.5899,1.5921,1.5927,1.5959,1.5966,1.5975,1.6004,1.6009,1.6043,1.6045,1.609,1.6087,1.6084,1.6084,1.6112,1.6109,1.6202,1.6215,1.6135,1.6136,1.6137,0,1.5826,1.5852,1.5872,1.5888,1.5899,1.5925,1.5942,1.5944,1.5961,1.5985,1.6004,1.6033,1.6055,1.6102,1.6112,1.6138,1.6135,1.6166,1.6139,1.6139,1.6136,1.6135,1.6138,1.6171,1.6172,1.6173,1.6173,0,1.5893,1.5895,1.5918,1.5944,1.5963,1.5983,1.6002,1.6016,1.602,1.6041,1.607,1.6088,1.6123,1.6152,1.6178,1.6189,1.6182,1.6182,1.619,1.619,1.6188,1.619,1.6098,1.618,1.6179,1.6178,1.6178,1.6178,1.594,1.5962,1.5981,1.6008,1.6023,1.6041,1.6063,1.6072,1.6097,1.6125,1.6125,1.6158,1.6177,1.6212,1.6225,1.6251,1.6241,1.6253,1.6256,1.6258,1.6261,1.6184,1.6256,1.6256,1.6255,1.6255,1.6255,0,1.6006,1.6018,1.6043,1.607,1.6092,1.6084,1.6105,1.6124,1.6153,1.6171,1.6194,1.6229,1.6257,1.627,1.6297,1.6316,1.6314,1.6323,1.6322,1.6325,1.6268,1.6259,1.6325,1.6325,1.6325,1.6325,1.6325,1.6325,1.6043,1.6081,1.6085,1.6131,1.6142,1.6174,1.6187,1.6204,1.6219,1.6258,1.6282,1.629,1.6307,1.6336,1.6362,1.6365,1.6376,1.6387,1.6389,1.6336,1.6329,1.6322,1.6313,1.6389,1.6389,1.6443,1.6443,1.6444]},{"header":{"parameterUnit":"m.s-1","parameterCategory":1,"la1":30.2991,"la2":30.254,"lo1":-89.0895,"lo2":-89.0444,"dy":0.0017,"dx":0.0017,"nx":28,"ny":28,"refTime":"2024-08-05T21:00:00:Z","depth":0,"parameterNumber":3,"parameterNumberName":"V-component_of_WINDS"},"data":[0,0,0,0,0,0,0,0,0,0,0,0,0,0,0,0,0,0,0,0,0,0,0,0,0,0,0,0,0,0,0,0,0,0,0,0,0,0,0,0,0,0,0,0,0,0,0,0,0,0,0,0,0,0,0,0,0,0,-2.5131,-2.5132,0,-2.5238,-2.5239,-2.524,-2.524,-2.5238,-2.5237,-2.5236,-2.5344,-2.5348,-2.5352,0,0,0,0,0,0,0,0,0,0,0,0,0,-2.4927,-2.4931,-2.5131,-2.5132,-2.5134,-2.5237,-2.5239,-2.524,-2.524,-2.5238,-2.5237,-2.5235,-2.5342,-2.5347,-2.5352,0,0,0,0,0,0,0,0,0,0,0,0,0,-2.5023,-2.4932,-2.5131,-2.5146,-2.5149,-2.5237,-2.5239,-2.5241,-2.524,-2.5238,-2.5236,-2.5234,-2.5341,-2.5347,-2.5353,-2.5433,0,0,-2.5372,-2.5375,0,0,0,0,0,0,0,0,-2.5018,-2.503,-2.5143,-2.5145,-2.5148,-2.5223,-2.5207,-2.5305,-2.5241,-2.5205,-2.5236,-2.5233,-2.5305,-2.5314,-2.5339,-2.5438,-2.5443,-2.5372,-2.5376,-2.5379,-2.5381,0,0,0,0,0,0,0,-2.5011,-2.5026,-2.5173,-2.5144,-2.5148,-2.5148,-2.5159,-2.5225,-2.5266,-2.5208,-2.5209,-2.5221,-2.5306,-2.5333,-2.5341,-2.5444,-2.5372,-2.5378,-2.5382,-2.5384,-2.5616,-2.5618,0,0,0,0,0,0,-2.5001,-2.502,-2.517,-2.5176,-2.5076,-2.5153,-2.5166,-2.5201,-2.5265,-2.5273,-2.5223,-2.5221,-2.5323,-2.5334,-2.5345,-2.5444,-2.5379,-2.5385,-2.5388,-2.5613,-2.5616,-2.5619,0,0,0,0,0,0,-2.4997,-2.5015,-2.5165,-2.5099,-2.5118,-2.5159,-2.5199,-2.5204,-2.5231,-2.5276,-2.5283,-2.5242,-2.5322,-2.5336,-2.5411,-2.5447,-2.5388,-2.5393,-2.561,-2.5614,-2.5617,-2.5641,0,0,0,0,0,0,-2.4991,-2.5013,-2.5044,-2.5099,-2.5121,-2.523,-2.5201,-2.5208,-2.5242,-2.524,-2.5296,-2.5303,-2.5321,-2.5402,-2.5418,-2.5455,-2.5398,-2.5607,-2.5612,-2.5616,-2.5637,-2.5645,-2.5651,0,0,0,0,0,-2.4984,-2.5046,-2.5045,-2.5063,-2.5161,-2.5232,-2.5245,-2.5264,-2.5245,-2.5276,-2.5305,-2.5302,-2.5441,-2.541,-2.5427,-2.5467,-2.5605,-2.5611,-2.5616,-2.5634,-2.5643,-2.5651,0,0,0,0,0,0,-2.4993,-2.5053,-2.5053,-2.5135,-2.5179,-2.5232,-2.5272,-2.5274,-2.5323,-2.532,-2.5341,-2.5354,-2.5429,-2.5456,-2.542,-2.5548,-2.5521,-2.553,-2.5528,-2.5538,-2.5545,-2.5537,-2.5403,0,0,0,0,0,-2.5005,-2.5058,-2.5108,-2.5175,-2.5197,-2.5231,-2.5263,-2.5274,-2.532,-2.5338,-2.5373,-2.5417,-2.5471,-2.5506,-2.5557,-2.5641,-2.5653,-2.5677,-2.5684,-2.569,-2.5697,-2.5744,-2.5755,-2.5636,-2.5636,-2.5636,0,0,-2.5029,-2.5069,-2.5101,-2.5178,-2.5213,-2.5267,-2.5246,-2.5305,-2.5345,-2.5347,-2.542,-2.5447,-2.5498,-2.5578,-2.5615,-2.5602,-2.5733,-2.5697,-2.5701,-2.5705,-2.5751,-2.5762,-2.5772,-2.564,-2.5639,-2.5639,0,0,-2.5101,-2.5137,-2.5197,-2.5233,-2.5286,-2.5309,-2.5323,-2.5377,-2.5395,-2.5469,-2.5471,-2.552,-2.5612,-2.5649,-2.5679,-2.5767,-2.5765,-2.5783,-2.582,-2.5866,-2.5875,-2.5884,-2.5915,-2.5926,-2.579,-2.579,-2.5791,0,-2.5125,-2.5207,-2.5228,-2.5287,-2.5321,-2.5325,-2.5387,-2.542,-2.5488,-2.5511,-2.5496,-2.5613,-2.5647,-2.5736,-2.5757,-2.5782,-2.5799,-2.5776,-2.5872,-2.5881,-2.5889,-2.5919,-2.5931,-2.5792,-2.5792,-2.5792,-2.5792,0,-2.5234,-2.5291,-2.5334,-2.5399,-2.5438,-2.5498,-2.5528,-2.5565,-2.5573,-2.5597,-2.5673,-2.5714,-2.5775,-2.5797,-2.5805,-2.5888,-2.5878,-2.5867,-2.584,-2.5902,-2.5931,-2.5942,-2.5795,-2.5794,-2.5794,-2.5793,0,0,-2.5314,-2.5392,-2.5407,-2.5437,-2.5497,-2.5542,-2.5602,-2.5662,-2.5693,-2.574,-2.5791,-2.587,-2.5861,-2.5895,-2.5908,-2.5948,-2.6015,-2.5932,-2.5934,-2.5947,-2.6109,-2.6116,-2.6129,-2.6015,-2.6017,-2.6019,-2.6104,0,-2.5393,-2.5501,-2.5521,-2.5615,-2.5669,-2.5674,-2.5727,-2.5769,-2.5794,-2.5842,-2.5869,-2.5924,-2.5908,-2.5929,-2.5969,-2.5998,-2.6048,-2.5993,-2.6063,-2.6065,-2.605,-2.6144,-2.6152,-2.6231,-2.6116,-2.6118,-2.6119,0,-2.55,-2.555,-2.5649,-2.5703,-2.5726,-2.5773,-2.583,-2.5877,-2.5925,-2.594,-2.5979,-2.5988,-2.6051,-2.6021,-2.6108,-2.607,-2.61,-2.6119,-2.6123,-2.613,-2.6096,-2.6154,-2.6256,-2.6268,-2.6137,-2.6136,-2.6134,0,-2.5549,-2.5641,-2.5713,-2.5738,-2.5802,-2.5835,-2.5864,-2.591,-2.5945,-2.5995,-2.6018,-2.6075,-2.6106,-2.6149,-2.6173,-2.6149,-2.6259,-2.623,-2.6273,-2.6272,-2.6295,-2.6294,-2.6404,-2.6315,-2.6315,-2.6314,-2.6314,0,-2.5635,-2.5695,-2.5736,-2.578,-2.5848,-2.5871,-2.5938,-2.5965,-2.6007,-2.6056,-2.6064,-2.6111,-2.6139,-2.6189,-2.6208,-2.6278,-2.6292,-2.6306,-2.631,-2.6305,-2.6303,-2.6325,-2.632,-2.6318,-2.6317,-2.6316,-2.6316,0,-2.5701,-2.573,-2.5809,-2.5864,-2.5879,-2.5927,-2.5973,-2.6016,-2.6041,-2.6104,-2.612,-2.6158,-2.6218,-2.6246,-2.632,-2.6333,-2.6412,-2.6412,-2.6396,-2.6397,-2.6438,-2.6434,-2.6566,-2.6585,-2.6483,-2.6484,-2.6485,0,-2.5754,-2.5801,-2.5861,-2.5895,-2.5924,-2.5979,-2.6015,-2.604,-2.6077,-2.6136,-2.6172,-2.6232,-2.6282,-2.6377,-2.6412,-2.6469,-2.6471,-2.6513,-2.6479,-2.6473,-2.6472,-2.6469,-2.6474,-2.6519,-2.652,-2.6521,-2.6522,0,-2.5845,-2.5858,-2.5909,-2.5967,-2.601,-2.6056,-2.6102,-2.6129,-2.6161,-2.6202,-2.6264,-2.6303,-2.6379,-2.6439,-2.6498,-2.6527,-2.653,-2.6532,-2.6545,-2.654,-2.6529,-2.6536,-2.6413,-2.6529,-2.6528,-2.6528,-2.6527,-2.6527,-2.5907,-2.5949,-2.5998,-2.6056,-2.6093,-2.6135,-2.6178,-2.6209,-2.6261,-2.6325,-2.6336,-2.6402,-2.645,-2.653,-2.6561,-2.6613,-2.6603,-2.6622,-2.6626,-2.6631,-2.6633,-2.6521,-2.6624,-2.6624,-2.6624,-2.6623,-2.6623,0,-2.5998,-2.603,-2.6083,-2.6147,-2.6193,-2.6192,-2.6243,-2.6281,-2.6338,-2.6383,-2.6432,-2.6503,-2.6562,-2.6601,-2.6661,-2.6694,-2.6697,-2.6709,-2.6707,-2.6714,-2.6638,-2.6621,-2.6706,-2.6706,-2.6706,-2.6706,-2.6706,-2.6706,-2.6051,-2.6123,-2.6141,-2.6231,-2.6263,-2.6328,-2.6357,-2.6396,-2.6432,-2.6511,-2.656,-2.6586,-2.6629,-2.6691,-2.6745,-2.6755,-2.6776,-2.6789,-2.6798,-2.6727,-2.6719,-2.671,-2.6695,-2.6793,-2.6793,-2.6869,-2.687,-2.6871]}]]